This demonstration page uses our WeatherBlox Daily Observations layout. Learn more.

Left ArrowRight Arrow

39.01783, -85.05884

Hourly Observations for July 26, 2020

Temp ( °F °C ) Dew Point ( °F °C ) Humidity (%) Winds ( mph kmh ) Pressure ( in mb ) Visibility ( mi km ) Precip ( " mm )
12:52 am 00:52 Clear 76 24.4 64 17.8 67 67 Calm 30.09 1019 10 16 0.00 0.00
1:52 am 01:52 Clear 74 23.3 64 17.8 71 71 S 3 6 30.09 1019 10 16 0.00 0.00
2:52 am 02:52 Clear 71 21.7 64 17.8 79 79 W 3 6 30.08 1019 10 16 0.00 0.00
3:52 am 03:52 Clear 71 21.7 65 18.3 81 81 Calm 30.08 1019 10 16 0.00 0.00
4:52 am 04:52 Clear 73 22.8 65 18.3 76 76 Calm 30.09 1019 10 16 0.00 0.00
5:52 am 05:52 Mostly Clear 71 21.7 66 18.9 84 84 Calm 30.10 1019 10 16 0.00 0.00
6:52 am 06:52 Mostly Sunny 69 20.6 66 18.9 90 90 Calm 30.10 1019 10 16 0.00 0.00
7:52 am 07:52 Sunny 73 22.8 68 20 84 84 S 8 13 30.10 1019 10 16 0.00 0.00
8:52 am 08:52 Sunny 78 25.6 69 20.6 74 74 SSW 5 7 30.11 1020 10 16 0.00 0.00
9:52 am 09:52 Sunny 82 27.8 70 21.1 67 67 WSW 6 9 30.11 1020 10 16 0.00 0.00
10:52 am 10:52 Mostly Sunny 84 28.9 71 21.7 65 65 SSW 8 13 30.11 1020 10 16 0.00 0.00
11:52 am 11:52 Partly Cloudy 86 30 72 22.2 63 63 W 8 13 30.11 1020 10 16 0.00 0.00
12:52 pm 12:52 Partly Cloudy 88 31.1 70 21.1 55 55 WNW 3 6 30.10 1019 10 16 0.00 0.00
1:52 pm 13:52 Partly Cloudy 89 31.7 71 21.7 55 55 W 6 9 30.08 1019 10 16 0.00 0.00
2:52 pm 14:52 Partly Cloudy 90 32.2 71 21.7 54 54 W 8 13 30.06 1018 10 16 0.00 0.00
3:52 pm 15:52 Partly Cloudy 90 32.2 70 21.1 52 52 Calm 30.04 1017 10 16 0.00 0.00
4:52 pm 16:52 Partly Cloudy 91 32.8 69 20.6 49 49 W 7 11 30.02 1017 10 16 0.00 0.00
5:52 pm 17:52 Partly Cloudy 91 32.8 69 20.6 49 49 W 7 11 30.02 1017 10 16 0.00 0.00
6:52 pm 18:52 Partly Cloudy 90 32.2 70 21.1 52 52 W 8 13 30.01 1016 10 16 0.00 0.00
7:52 pm 19:52 Partly Cloudy 87 30.6 71 21.7 59 59 WSW 6 9 29.99 1016 10 16 0.00 0.00
8:52 pm 20:52 Partly Cloudy 83 28.3 70 21.1 65 65 SSW 6 9 29.99 1016 10 16 0.00 0.00
9:52 pm 21:52 Partly Cloudy 80 26.7 72 22.2 76 76 SSW 3 6 30.01 1016 10 16 0.00 0.00
10:52 pm 22:52 Partly Cloudy 80 26.7 71 21.7 74 74 SW 7 11 30.02 1017 10 16 0.00 0.00
11:52 pm 23:52 Clear 78 25.6 70 21.1 76 76 SSW 6 9 30.01 1016 10 16 0.00 0.00

Powered by AerisWeather